RYR3WD LPMA-LPPT

Flight info

Callsign RYR3WD
Flight time 1h 19m
Altitude 38000
Route DEGUN DCT NARTA DCT ESUTI
Aircraft B38M/M-SDE1FGHILORVWXY/HB1

Departure

Time 2026-05-07 09:43
Airport Cristiano Ronaldo International Airport (LPMA)

Arrival

Time 2026-05-07 11:03
Airport Lisbon Humberto Delgado Airport (LPPT)
Time Latitude Longitude Altitude Speed Heading
2026-05-07 09:35 32.69350 -16.77781 171 ft 2 kts 227°
2026-05-07 09:40 32.69348 -16.77783 171 ft 2 kts 227°
2026-05-07 09:40 32.69327 -16.77809 171 ft 8 kts 226°
2026-05-07 09:40 32.69289 -16.77870 170 ft 11 kts 254°
2026-05-07 09:40 32.69286 -16.77989 164 ft 17 kts 264°
2026-05-07 09:41 32.69216 -16.78111 163 ft 20 kts 225°
2026-05-07 09:41 32.69113 -16.78232 163 ft 20 kts 224°
2026-05-07 09:41 32.69010 -16.78351 161 ft 17 kts 224°
2026-05-07 09:41 32.68919 -16.78404 158 ft 14 kts 198°
2026-05-07 09:42 32.68898 -16.78467 158 ft 4 kts 333°
2026-05-07 09:42 32.68921 -16.78455 158 ft 4 kts 39°
2026-05-07 09:42 32.68943 -16.78430 158 ft 4 kts 45°
2026-05-07 09:42 32.68966 -16.78403 159 ft 6 kts 44°
2026-05-07 09:43 32.69054 -16.78301 162 ft 47 kts 44°
2026-05-07 09:43 32.69485 -16.77798 171 ft 123 kts 44°
2026-05-07 09:43 32.70224 -16.76926 319 ft 173 kts 45°
2026-05-07 09:43 32.71101 -16.75805 1102 ft 194 kts 50°
2026-05-07 09:44 32.71852 -16.74311 1870 ft 225 kts 68°
2026-05-07 09:44 32.72038 -16.72376 2437 ft 247 kts 97°
2026-05-07 09:44 32.71739 -16.70330 3178 ft 259 kts 103°
2026-05-07 09:44 32.71076 -16.68275 3979 ft 270 kts 118°
2026-05-07 09:45 32.70205 -16.66318 5039 ft 271 kts 118°
2026-05-07 09:45 32.69294 -16.64297 5858 ft 279 kts 119°
2026-05-07 09:45 32.68382 -16.62292 6007 ft 277 kts 119°
2026-05-07 09:45 32.67467 -16.60279 6143 ft 279 kts 116°
2026-05-07 09:46 32.67042 -16.58058 7010 ft 281 kts 86°
2026-05-07 09:46 32.67606 -16.55825 7711 ft 287 kts 58°
2026-05-07 09:46 32.68898 -16.54008 8551 ft 287 kts 39°
2026-05-07 09:46 32.70406 -16.52458 9322 ft 293 kts 39°
2026-05-07 09:47 32.71951 -16.50829 10142 ft 297 kts 39°
2026-05-07 09:47 32.73500 -16.49179 10821 ft 304 kts 39°
2026-05-07 09:47 32.75087 -16.47473 11554 ft 310 kts 39°
2026-05-07 09:47 32.76706 -16.45726 12274 ft 317 kts 39°
2026-05-07 09:48 32.78351 -16.43947 13001 ft 324 kts 39°
2026-05-07 09:48 32.80039 -16.42117 13751 ft 331 kts 39°
2026-05-07 09:48 32.81757 -16.40251 14416 ft 338 kts 39°
2026-05-07 09:48 32.83518 -16.38341 15167 ft 342 kts 39°
2026-05-07 09:49 32.85285 -16.36423 15900 ft 347 kts 39°
2026-05-07 09:49 32.87081 -16.34472 16619 ft 352 kts 39°
2026-05-07 09:49 32.88902 -16.32494 17343 ft 356 kts 39°
2026-05-07 09:49 32.90738 -16.30496 18046 ft 361 kts 39°
2026-05-07 09:50 32.92594 -16.28476 18682 ft 365 kts 39°
2026-05-07 09:50 32.93854 -16.27105 19079 ft 368 kts 39°
2026-05-07 09:50 32.95753 -16.25036 19669 ft 372 kts 39°
2026-05-07 09:50 32.97674 -16.22942 20269 ft 376 kts 39°
2026-05-07 09:51 32.99617 -16.20825 20848 ft 380 kts 39°
2026-05-07 09:51 33.01570 -16.18694 21407 ft 384 kts 39°
2026-05-07 09:51 33.03542 -16.16541 21975 ft 387 kts 39°
2026-05-07 09:51 33.05543 -16.14355 22530 ft 391 kts 39°
2026-05-07 09:52 33.07561 -16.12150 23082 ft 395 kts 39°
2026-05-07 09:52 33.09592 -16.09930 23593 ft 399 kts 39°
2026-05-07 09:52 33.11641 -16.07686 24053 ft 402 kts 39°
2026-05-07 09:52 33.13726 -16.05402 24509 ft 405 kts 39°
2026-05-07 09:53 33.15808 -16.03122 24943 ft 407 kts 38°
2026-05-07 09:53 33.17888 -16.00843 25374 ft 410 kts 38°
2026-05-07 09:53 33.19991 -15.98535 25795 ft 413 kts 38°
2026-05-07 09:53 33.22128 -15.96189 26228 ft 416 kts 38°
2026-05-07 09:54 33.24269 -15.93837 26636 ft 418 kts 38°
2026-05-07 09:54 33.26407 -15.91490 27114 ft 418 kts 38°
2026-05-07 09:54 33.28539 -15.89152 27628 ft 417 kts 38°
2026-05-07 09:54 33.30686 -15.86795 28125 ft 417 kts 38°
2026-05-07 09:55 33.32814 -15.84456 28594 ft 417 kts 38°
2026-05-07 09:55 33.34955 -15.82104 29051 ft 417 kts 38°
2026-05-07 09:55 33.37096 -15.79746 29495 ft 417 kts 38°
2026-05-07 09:55 33.39224 -15.77402 29926 ft 417 kts 38°
2026-05-07 09:56 33.41340 -15.75069 30303 ft 417 kts 38°
2026-05-07 09:56 33.43477 -15.72710 30657 ft 416 kts 38°
2026-05-07 09:56 33.45603 -15.70363 31020 ft 415 kts 38°
2026-05-07 09:56 33.47740 -15.68002 31380 ft 414 kts 38°
2026-05-07 09:57 33.49857 -15.65661 31728 ft 413 kts 37°
2026-05-07 09:57 33.51965 -15.63327 32063 ft 413 kts 37°
2026-05-07 09:57 33.54066 -15.61001 32374 ft 412 kts 37°
2026-05-07 09:57 33.56167 -15.58673 32699 ft 411 kts 37°
2026-05-07 09:58 33.58250 -15.56363 33002 ft 410 kts 37°
2026-05-07 09:58 33.60367 -15.54011 33287 ft 410 kts 37°
2026-05-07 09:58 33.62438 -15.51710 33568 ft 409 kts 37°
2026-05-07 09:58 33.64523 -15.49393 33834 ft 409 kts 37°
2026-05-07 09:59 33.66636 -15.47041 34080 ft 409 kts 37°
2026-05-07 09:59 33.70856 -15.42323 34125 ft 422 kts 37°
2026-05-07 10:00 33.75223 -15.37431 34195 ft 435 kts 37°
2026-05-07 10:00 33.79714 -15.32383 34271 ft 449 kts 37°
2026-05-07 10:01 33.84349 -15.27186 34353 ft 463 kts 38°
2026-05-07 10:01 33.89120 -15.21815 34432 ft 477 kts 38°
2026-05-07 10:02 33.94050 -15.16258 34507 ft 492 kts 38°
2026-05-07 10:02 33.99111 -15.10543 34810 ft 499 kts 38°
2026-05-07 10:02 34.01641 -15.07702 35162 ft 498 kts 38°
2026-05-07 10:03 34.04168 -15.04858 35474 ft 498 kts 38°
2026-05-07 10:03 34.06673 -15.02034 35799 ft 497 kts 38°
2026-05-07 10:03 34.09197 -14.99188 36118 ft 496 kts 38°
2026-05-07 10:03 34.11733 -14.96327 36397 ft 496 kts 38°
2026-05-07 10:04 34.14246 -14.93487 36683 ft 495 kts 38°
2026-05-07 10:04 34.16741 -14.90662 36982 ft 494 kts 38°
2026-05-07 10:04 34.19237 -14.87835 37278 ft 493 kts 38°
2026-05-07 10:04 34.21751 -14.84985 37533 ft 493 kts 38°
2026-05-07 10:05 34.24225 -14.82086 37791 ft 493 kts 39°
2026-05-07 10:05 34.26671 -14.79178 38028 ft 492 kts 39°
2026-05-07 10:05 34.29106 -14.76296 38050 ft 492 kts 39°
2026-05-07 10:06 34.33994 -14.70511 38049 ft 490 kts 39°
2026-05-07 10:06 34.38861 -14.64741 38043 ft 489 kts 39°
2026-05-07 10:07 34.43697 -14.58997 38049 ft 488 kts 39°
2026-05-07 10:07 34.48557 -14.53218 38046 ft 487 kts 39°
2026-05-07 10:08 34.53408 -14.47436 38047 ft 487 kts 39°
2026-05-07 10:08 34.58240 -14.41668 38042 ft 486 kts 39°
2026-05-07 10:09 34.63058 -14.35907 38047 ft 486 kts 39°
2026-05-07 10:09 34.67855 -14.30161 38041 ft 485 kts 39°
2026-05-07 10:10 34.72656 -14.24402 38043 ft 485 kts 39°
2026-05-07 10:10 34.77484 -14.18599 38038 ft 484 kts 39°
2026-05-07 10:11 34.82246 -14.12866 38039 ft 484 kts 39°
2026-05-07 10:11 34.87049 -14.07072 38036 ft 484 kts 39°
2026-05-07 10:12 34.91806 -14.01325 38047 ft 484 kts 39°
2026-05-07 10:12 34.96607 -13.95515 38045 ft 484 kts 39°
2026-05-07 10:13 35.01365 -13.89746 38037 ft 484 kts 40°
2026-05-07 10:13 35.06134 -13.83954 38029 ft 484 kts 40°
2026-05-07 10:14 35.10902 -13.78154 38033 ft 484 kts 40°
2026-05-07 10:14 35.15676 -13.72335 38035 ft 484 kts 40°
2026-05-07 10:15 35.20446 -13.66511 38038 ft 484 kts 40°
2026-05-07 10:15 35.25204 -13.60692 38035 ft 483 kts 40°
2026-05-07 10:16 35.29937 -13.54893 38039 ft 483 kts 40°
2026-05-07 10:16 35.34692 -13.49056 38031 ft 482 kts 40°
2026-05-07 10:17 35.39409 -13.43257 38035 ft 482 kts 40°
2026-05-07 10:17 35.44157 -13.37410 38030 ft 481 kts 40°
2026-05-07 10:18 35.48854 -13.31613 38035 ft 481 kts 40°
2026-05-07 10:18 35.53591 -13.25759 38028 ft 481 kts 40°
2026-05-07 10:19 35.58303 -13.19924 38035 ft 481 kts 40°
2026-05-07 10:19 35.62996 -13.14102 38022 ft 481 kts 40°
2026-05-07 10:20 35.67703 -13.08253 38030 ft 481 kts 40°
2026-05-07 10:20 35.72432 -13.02367 38025 ft 481 kts 40°
2026-05-07 10:21 35.77110 -12.96532 38029 ft 481 kts 40°
2026-05-07 10:21 35.81805 -12.90667 38023 ft 481 kts 40°
2026-05-07 10:22 35.86504 -12.84785 38026 ft 480 kts 40°
2026-05-07 10:22 35.91193 -12.78907 38025 ft 480 kts 41°
2026-05-07 10:23 35.95871 -12.73030 38025 ft 479 kts 41°
2026-05-07 10:23 36.00525 -12.67175 38025 ft 479 kts 41°
2026-05-07 10:24 36.04431 -12.62252 38034 ft 479 kts 41°
2026-05-07 10:24 36.09080 -12.56383 38018 ft 478 kts 41°
2026-05-07 10:25 36.13735 -12.50495 38021 ft 478 kts 41°
2026-05-07 10:25 36.18387 -12.44601 38020 ft 477 kts 41°
2026-05-07 10:26 36.23043 -12.38691 38024 ft 477 kts 41°
2026-05-07 10:26 36.27673 -12.32804 38014 ft 477 kts 41°
2026-05-07 10:27 36.32296 -12.26914 38021 ft 477 kts 41°
2026-05-07 10:27 36.36922 -12.21010 38014 ft 476 kts 41°
2026-05-07 10:28 36.41531 -12.15117 38017 ft 476 kts 41°
2026-05-07 10:28 36.46121 -12.09238 38012 ft 475 kts 41°
2026-05-07 10:29 36.50734 -12.03318 38012 ft 475 kts 41°
2026-05-07 10:29 36.55321 -11.97422 38008 ft 475 kts 41°
2026-05-07 10:30 36.62223 -11.88528 38009 ft 474 kts 41°
2026-05-07 10:30 36.66785 -11.82637 38009 ft 474 kts 41°
2026-05-07 10:31 36.71367 -11.76709 38006 ft 474 kts 42°
2026-05-07 10:31 36.75935 -11.70788 38009 ft 474 kts 42°
2026-05-07 10:32 36.80529 -11.64822 38008 ft 474 kts 42°
2026-05-07 10:32 36.85080 -11.58901 38008 ft 474 kts 42°
2026-05-07 10:33 36.89652 -11.52943 38006 ft 473 kts 42°
2026-05-07 10:33 36.94205 -11.46998 38004 ft 473 kts 42°
2026-05-07 10:34 36.98760 -11.41038 38001 ft 473 kts 42°
2026-05-07 10:34 37.03276 -11.35121 38000 ft 472 kts 42°
2026-05-07 10:35 37.07825 -11.29148 38002 ft 472 kts 42°
2026-05-07 10:35 37.12366 -11.23174 38002 ft 472 kts 42°
2026-05-07 10:36 37.16870 -11.17239 38004 ft 472 kts 43°
2026-05-07 10:36 37.19124 -11.14264 37753 ft 468 kts 42°
2026-05-07 10:36 37.21374 -11.11292 37189 ft 465 kts 42°
2026-05-07 10:37 37.23569 -11.08390 36664 ft 461 kts 42°
2026-05-07 10:37 37.25787 -11.05455 36180 ft 457 kts 42°
2026-05-07 10:37 37.27954 -11.02584 35713 ft 454 kts 42°
2026-05-07 10:37 37.30141 -10.99685 35213 ft 451 kts 42°
2026-05-07 10:38 37.32265 -10.96867 34738 ft 448 kts 42°
2026-05-07 10:38 37.34403 -10.94026 34252 ft 445 kts 42°
2026-05-07 10:38 37.36535 -10.91192 33731 ft 442 kts 42°
2026-05-07 10:38 37.38634 -10.88400 33190 ft 439 kts 42°
2026-05-07 10:39 37.40743 -10.85591 32712 ft 435 kts 42°
2026-05-07 10:39 37.42792 -10.82860 32251 ft 431 kts 42°
2026-05-07 10:39 37.44867 -10.80092 31764 ft 428 kts 43°
2026-05-07 10:39 37.46878 -10.77407 31297 ft 425 kts 43°
2026-05-07 10:40 37.48918 -10.74681 30825 ft 422 kts 43°
2026-05-07 10:40 37.50905 -10.72024 30360 ft 419 kts 43°
2026-05-07 10:40 37.52898 -10.69356 29852 ft 417 kts 43°
2026-05-07 10:40 37.54897 -10.66679 29328 ft 414 kts 43°
2026-05-07 10:41 37.56866 -10.64039 28862 ft 410 kts 43°
2026-05-07 10:41 37.58813 -10.61426 28390 ft 406 kts 43°
2026-05-07 10:41 37.60736 -10.58845 27943 ft 403 kts 43°
2026-05-07 10:41 37.62676 -10.56240 27428 ft 418 kts 44°
2026-05-07 10:42 37.64656 -10.53576 26981 ft 414 kts 44°
2026-05-07 10:42 37.66623 -10.50926 26555 ft 410 kts 44°
2026-05-07 10:42 37.68564 -10.48311 26101 ft 406 kts 44°
2026-05-07 10:42 37.70479 -10.45728 25654 ft 403 kts 44°
2026-05-07 10:43 37.72396 -10.43142 25203 ft 400 kts 44°
2026-05-07 10:43 37.74295 -10.40578 24750 ft 398 kts 44°
2026-05-07 10:43 37.76179 -10.38031 24302 ft 395 kts 44°
2026-05-07 10:43 37.78043 -10.35509 23861 ft 393 kts 45°
2026-05-07 10:44 37.79916 -10.32973 23389 ft 391 kts 45°
2026-05-07 10:44 37.81771 -10.30460 22887 ft 389 kts 45°
2026-05-07 10:44 37.83598 -10.27983 22429 ft 385 kts 45°
2026-05-07 10:44 37.85432 -10.25494 21994 ft 381 kts 45°
2026-05-07 10:45 37.87224 -10.23060 21561 ft 378 kts 45°
2026-05-07 10:45 37.89018 -10.20623 21135 ft 374 kts 45°
2026-05-07 10:45 37.90766 -10.18246 20717 ft 371 kts 45°
2026-05-07 10:45 37.92516 -10.15863 20292 ft 368 kts 45°
2026-05-07 10:46 37.94254 -10.13495 19872 ft 365 kts 45°
2026-05-07 10:46 37.95994 -10.11123 19447 ft 362 kts 45°
2026-05-07 10:46 37.97693 -10.08806 19036 ft 360 kts 45°
2026-05-07 10:46 37.99406 -10.06467 18616 ft 357 kts 45°
2026-05-07 10:47 38.01090 -10.04166 18192 ft 355 kts 45°
2026-05-07 10:47 38.02774 -10.01864 17726 ft 353 kts 45°
2026-05-07 10:47 38.04434 -9.99593 17308 ft 349 kts 45°
2026-05-07 10:47 38.06063 -9.97362 16897 ft 346 kts 45°
2026-05-07 10:48 38.07688 -9.95137 16495 ft 342 kts 45°
2026-05-07 10:48 38.09308 -9.92916 16084 ft 339 kts 45°
2026-05-07 10:48 38.10893 -9.90741 15687 ft 336 kts 45°
2026-05-07 10:48 38.12495 -9.88541 15283 ft 334 kts 45°
2026-05-07 10:49 38.14052 -9.86402 14888 ft 331 kts 46°
2026-05-07 10:49 38.15620 -9.84246 14495 ft 329 kts 46°
2026-05-07 10:49 38.17155 -9.82133 14103 ft 326 kts 46°
2026-05-07 10:49 38.18687 -9.80025 13709 ft 324 kts 46°
2026-05-07 10:50 38.20212 -9.77925 13268 ft 322 kts 46°
2026-05-07 10:50 38.21731 -9.75831 12859 ft 319 kts 46°
2026-05-07 10:50 38.23227 -9.73766 12468 ft 316 kts 46°
2026-05-07 10:50 38.24703 -9.71729 12076 ft 312 kts 46°
2026-05-07 10:51 38.26171 -9.69702 11702 ft 309 kts 46°
2026-05-07 10:51 38.27627 -9.67689 11322 ft 306 kts 46°
2026-05-07 10:51 38.29066 -9.65698 10948 ft 304 kts 46°
2026-05-07 10:51 38.30486 -9.63733 10574 ft 301 kts 46°
2026-05-07 10:52 38.31897 -9.61781 10202 ft 299 kts 46°
2026-05-07 10:52 38.33296 -9.59841 9903 ft 294 kts 46°
2026-05-07 10:52 38.34660 -9.57951 9514 ft 292 kts 46°
2026-05-07 10:52 38.36047 -9.56027 9118 ft 289 kts 46°
2026-05-07 10:53 38.37384 -9.54171 8753 ft 286 kts 46°
2026-05-07 10:53 38.38727 -9.52307 8395 ft 283 kts 46°
2026-05-07 10:53 38.40055 -9.50460 8049 ft 280 kts 46°
2026-05-07 10:53 38.41361 -9.48644 7701 ft 277 kts 46°
2026-05-07 10:54 38.42660 -9.46836 7357 ft 274 kts 46°
2026-05-07 10:54 38.43941 -9.45053 7014 ft 271 kts 45°
2026-05-07 10:54 38.45201 -9.43297 6683 ft 268 kts 45°
2026-05-07 10:54 38.46451 -9.41557 6351 ft 266 kts 45°
2026-05-07 10:55 38.47703 -9.39809 5988 ft 263 kts 45°
2026-05-07 10:55 38.48929 -9.38100 5653 ft 260 kts 46°
2026-05-07 10:55 38.50149 -9.36397 5319 ft 257 kts 45°
2026-05-07 10:55 38.51338 -9.34735 5028 ft 253 kts 45°
2026-05-07 10:56 38.52135 -9.33621 4910 ft 247 kts 45°
2026-05-07 10:56 38.53612 -9.31556 4824 ft 229 kts 45°
2026-05-07 10:56 38.54326 -9.30557 4742 ft 223 kts 45°
2026-05-07 10:56 38.55340 -9.29139 4624 ft 212 kts 45°
2026-05-07 10:57 38.56301 -9.27793 4534 ft 200 kts 44°
2026-05-07 10:57 38.57205 -9.26524 4412 ft 187 kts 44°
2026-05-07 10:57 38.58062 -9.25325 4200 ft 176 kts 44°
2026-05-07 10:57 38.58898 -9.24210 3988 ft 172 kts 37°
2026-05-07 10:58 38.59886 -9.23378 3791 ft 170 kts 25°
2026-05-07 10:58 38.60948 -9.22762 3585 ft 169 kts 21°
2026-05-07 10:58 38.62036 -9.22178 3384 ft 169 kts 21°
2026-05-07 10:58 38.63125 -9.21597 3173 ft 169 kts 21°
2026-05-07 10:59 38.64194 -9.21025 2957 ft 164 kts 20°
2026-05-07 10:59 38.65226 -9.20475 2729 ft 152 kts 20°
2026-05-07 10:59 38.66168 -9.19973 2533 ft 144 kts 19°
2026-05-07 10:59 38.67082 -9.19486 2347 ft 139 kts 19°
2026-05-07 11:00 38.67966 -9.19016 2133 ft 139 kts 19°
2026-05-07 11:00 38.68864 -9.18536 1945 ft 139 kts 18°
2026-05-07 11:00 38.69756 -9.18067 1799 ft 138 kts 18°
2026-05-07 11:00 38.70678 -9.17608 1680 ft 144 kts 17°
2026-05-07 11:01 38.71590 -9.17121 1444 ft 139 kts 20°
2026-05-07 11:01 38.72468 -9.16613 1259 ft 138 kts 18°
2026-05-07 11:01 38.73337 -9.16160 1076 ft 135 kts 19°
2026-05-07 11:01 38.74234 -9.15690 863 ft 146 kts 19°
2026-05-07 11:02 38.75188 -9.15169 677 ft 151 kts 19°
2026-05-07 11:02 38.76192 -9.14636 478 ft 158 kts 20°
2026-05-07 11:02 38.77174 -9.14106 364 ft 139 kts 23°
2026-05-07 11:02 38.77841 -9.13752 365 ft 69 kts 22°
2026-05-07 11:03 38.78120 -9.13600 374 ft 36 kts 22°
2026-05-07 11:03 38.78306 -9.13444 367 ft 25 kts 43°
2026-05-07 11:03 38.78365 -9.13362 365 ft 0 kts 51°
2026-05-07 11:03 38.78370 -9.13353 367 ft 4 kts 59°
2026-05-07 11:04 38.78369 -9.13284 369 ft 11 kts 124°
2026-05-07 11:04 38.78285 -9.13282 364 ft 15 kts 204°
2026-05-07 11:04 38.78181 -9.13336 364 ft 15 kts 202°
2026-05-07 11:04 38.78094 -9.13383 363 ft 14 kts 203°
2026-05-07 11:05 38.78009 -9.13429 362 ft 14 kts 204°
2026-05-07 11:05 38.77911 -9.13482 360 ft 16 kts 201°
2026-05-07 11:05 38.77818 -9.13531 361 ft 15 kts 202°
2026-05-07 11:05 38.77718 -9.13585 359 ft 14 kts 202°
2026-05-07 11:06 38.77612 -9.13586 361 ft 18 kts 167°
2026-05-07 11:06 38.77481 -9.13551 353 ft 20 kts 168°
2026-05-07 11:06 38.77340 -9.13513 349 ft 21 kts 168°
2026-05-07 11:06 38.77190 -9.13472 349 ft 23 kts 168°
2026-05-07 11:07 38.77025 -9.13429 347 ft 21 kts 167°
2026-05-07 11:07 38.76886 -9.13391 346 ft 11 kts 168°
2026-05-07 11:07 38.76799 -9.13369 345 ft 14 kts 174°
2026-05-07 11:07 38.76704 -9.13415 346 ft 16 kts 216°
2026-05-07 11:08 38.76646 -9.13528 350 ft 17 kts 261°
2026-05-07 11:08 38.76626 -9.13645 352 ft 11 kts 244°
2026-05-07 11:08 38.76578 -9.13663 350 ft 7 kts 168°
2026-05-07 11:08 38.76559 -9.13631 353 ft 5 kts 87°
2026-05-07 11:09 38.76540 -9.13602 357 ft 5 kts 164°
2026-05-07 11:09 38.76499 -9.13591 350 ft 4 kts 168°
2026-05-07 11:09 38.76494 -9.13590 350 ft 0 kts 168°